Portada
METAR-TAF:

METAR-TAF

Aeropuertos :

Aeropuerto de Río Cuarto

Río Cuarto, Argentina

latitud: 33-07S, longitud: 064-14W, altitud: 420 m

Observación

El informe se hizo hace 34 minutos, a las 21:00 UTC
Viento 14 kt del noreste
Temperatura 11°C
Humedad 94%
Presión 1017 hPa
Visibilidad: 5000 m
Cielo nuboso a una altura de 800 ft
Cielo cubierto a una altura de 5000 ft
llovizna

METAR: SAOC 212100Z 05014KT 5000 DZ BKN008 OVC050 11/10 Q1017

Hora: 18:34 (21:34 UTC)


TAF: falta

Observaciones y pronósticos meteorológicos de más de 4000 aeropuertos (mensajes METAR y TAF).

Los puntos amarillos y rojos representan las estaciones disponibles.

Ponga el ratón en el punto deseado para ver el nombre de la estación.

Haga clic para ver las observaciones y los pronósticos meteorológicos.

Para cambiar el mapa : haga clic en los botones verdes con una cruz de color negro para hacer un zoom, en el botón verde con un guión para alejar o en las flechas verdes para mapas adyacentes.


METAR-TAF: